Regional Weather Roundup
Issued by NWS

Home | Current Version | Previous Version | Text Only | Print | Product List | Glossary Off
Versions: 1 2 3 4 5 6 7 8 9 10 11 12 13 14 15 16 17 18 19 20 21 22 23 24 25 26 27 28 29 30 31 32 33 34 35 36 37 38 39 40 41 42 43 44 45 46 47 48 49 50

000
ASUS43 KDTX 282110
RWRMI
MICHIGAN HOURLY REGIONAL WEATHER ROUNDUP
NATIONAL WEATHER SERVICE DETROIT/PONTIAC MI
500 PM EDT SAT MAR 28 2015

NOTE: "FAIR" INDICATES FEW OR NO CLOUDS BELOW 12,000 FEET WITH NO
SIGNIFICANT WEATHER AND/OR OBSTRUCTION TO VISIBILITY.

MIZ047>049-052>055-059>063-066>070-074>076-081>083-282200-
SOUTHEAST LOWER MICHIGAN

CITY           SKY/WX    TMP DP  RH WIND       PRES   REMARKS
ADRIAN         SUNNY     35   8  32 N8        30.26F WCI  29
ALMA           SUNNY     37   2  23 CALM      30.25F
ANN ARBOR      SUNNY     36   7  29 NW7       30.24F WCI  30
BAD AXE        SUNNY     30  10  44 W7        30.26S WCI  23
CARO           SUNNY     32   6  33 CALM      30.26S
DETROIT CITY   SUNNY     37   8  30 NW8       30.25F WCI  31
DETROIT        MOSUNNY   37   8  30 CALM      30.25F
FLINT          SUNNY     36   6  28 NW9       30.26S WCI  29
GROSSE ILE     SUNNY     32  16  51 S12       30.25S WCI  23
HILLSDALE      SUNNY     35   4  27 NW7       30.24R WCI  29
HOWELL         SUNNY     34   6  32 W5        30.24S WCI  29

CITY           SKY/WX    TMP DP  RH WIND       PRES   REMARKS
JACKSON        SUNNY     35   5  28 VRB7      30.24F WCI  29
LAMBERTVILLE   SUNNY     36  10  35 W5        30.26F WCI  32
LANSING        SUNNY     35   4  27 NW7       30.27F WCI  29
LAPEER         FAIR      33   9  37 N7        30.24S WCI  26
MASON          SUNNY     33   5  30 N6        30.25F WCI  28
MONROE         SUNNY     34  16  47 SE9       30.24F WCI  26
MT. CLEMENS    MOSUNNY   34  11  39 NW12      30.22F WCI  25
PONTIAC        MOSUNNY   35   5  28 VRB6      30.22F WCI  30
PORT HOPE        N/A     28  12  51 N6        30.25F WCI  22
PORT HURON     SUNNY     30  18  59 E6        30.25F WCI  24
TRI CITIES     SUNNY     36   5  27 VRB3      30.25F
TROY           SUNNY     35   8  32 CALM      30.25F
SAGINAW HB     SUNNY     34   9  35 CALM      30.26S
$$
MIZ043>046-050>051-056>058-064>065-071>073-077>080-282200-
SOUTHWEST LOWER MICHIGAN

CITY           SKY/WX    TMP DP  RH WIND       PRES   REMARKS
BATTLE CREEK   SUNNY     37   3  24 NW9       30.26F WCI  30
BENTON HARBOR  SUNNY     27  10  49 NW9       30.32S WCI  18
BIG RAPIDS     SUNNY     37  -1  20 NW6       30.23S WCI  32
COLDWATER      SUNNY     35   4  27 W5        30.26S WCI  31
FREMONT        FAIR      35   3  25 W6        30.26S WCI  30
HOLLAND        SUNNY     31  11  43 W10       30.31S WCI  22
GRAND RAPIDS   SUNNY     35   3  26 VRB5      30.27F WCI  31
IONIA          FAIR      37   1  22 CALM      30.25F
KALAMAZOO      SUNNY     36   0  21 CALM      30.26F
LUDINGTON      SUNNY     31  15  51 SW8       30.30F WCI  23
MARSHALL       SUNNY     35   2  24 CALM      30.25F
MOUNT PLEASANT SUNNY     37   4  24 SW3       30.23F
MUSKEGON       SUNNY     30   6  36 W9        30.31S WCI  22
SOUTH HAVEN    SUNNY     30  10  43 W9G16     30.31R WCI  22
$$
MIZ016>042-282200-
NORTHERN LOWER MICHIGAN

CITY           SKY/WX    TMP DP  RH WIND       PRES   REMARKS
ALPENA         SUNNY     35   6  29 W5        30.22F WCI  31
BEAVER ISLAND  SUNNY     28  16  61 SW10G17   30.26F WCI  19
BELLAIRE       SUNNY     32   2  28 SW3       30.27S
CADILLAC       SUNNY     36   2  24 SW7       30.20S WCI  30
CHARLEVOIX     SUNNY     28  12  51 W10       30.30F WCI  18
FRANKFORT      SUNNY     32  11  41 W7        30.28F WCI  26
GAYLORD        SUNNY     29   2  31 W8        30.20S WCI  21
GRAYLING       SUNNY     33   2  27 NW9G16    30.21S WCI  26
HARBOR SPRINGS SUNNY     28   7  40 W10       30.26S WCI  19
HOUGHTON LAKE  SUNNY     34   3  27 W8        30.21F WCI  27
MANISTEE       SUNNY     28  10  47 W9        30.29F WCI  20
OSCODA         SUNNY     31  14  49 SE7       30.24S WCI  24
PELLSTON       SUNNY     30   6  36 W10       30.25F WCI  21
ROGERS CITY    SUNNY     30  17  59 N12G17    30.24F WCI  20
TRAVERSE CITY  SUNNY     32  10  40 N10       30.25F WCI  24
$$
MIZ007>008-015-282200-
EASTERN UPPER MICHIGAN

CITY           SKY/WX    TMP DP  RH WIND       PRES   REMARKS
KINROSS        SUNNY     30   7  37 SW12      30.21S WCI  21
MACKINAC ISLAN SUNNY     25  15  65 W9G18     30.25S WCI  16
NEWBERRY       SUNNY     30  11  45 S10       30.20F WCI  21
S. S. MARIE    SUNNY     32   6  33 NW8       30.20F WCI  25
MUNISING         N/A     40   2  20 SW8       30.17F WCI  34
$$
MIZ004>006-011>014-085-282200-
CENTRAL UPPER MICHIGAN

CITY           SKY/WX    TMP DP  RH WIND       PRES   REMARKS
MANISTIQUE     SUNNY     29  19  66 S13G18    30.23S WCI  19
ESCANABA       SUNNY     32  12  43 S15       30.22F WCI  22
MENOMINEE      SUNNY     36  16  44 S12       30.22F WCI  27
SAWYER-GWINN   SUNNY     36   3  25 SW12      30.14F WCI  27
$$
MIZ001>003-009>011-084-282200-
WESTERN UPPER MICHIGAN

CITY           SKY/WX    TMP DP  RH WIND       PRES   REMARKS
IRON MOUNTAIN  SUNNY     40   8  26 S12       30.13F WCI  33
HOUGHTON       SUNNY     37   3  24 N3        30.11F
COPPER HARBOR    N/A     31  10  41 E3        30.15F
IRONWOOD       SUNNY     41  10  28 S10G16    30.06F
$$

ABBREVIATIONS USED IN REMARKS
   TC - TEMPERATURE IN CELSIUS
  WCI - WIND CHILL INDEX
   HX - HEAT INDEX
  VSB - VISIBILITY




USA.gov is the U.S. government's official web portal to all federal, state and local government web resources and services.